Miscellaneous Local Product
Issued by NWS Hastings, NE

Home | Current Version | Previous Version | Text Only | Print | Product List | Glossary On
Versions: 1 2 3 4 5 6 7 8 9 10 11 12 13 14 15 16 17 18 19 20 21 22 23 24 25 26 27 28 29 30 31 32 33 34 35 36 37 38 39 40 41 42 43 44 45 46 47 48 49 50
691
AXUS43 KGID 240102
MISGRI

GID CWA HOURLY WEATHER ROUNDUP
NATIONAL WEATHER SERVICE HASTINGS NE
800 PM CDT TUE MAY 23 2017

NOTE: "FAIR" INDICATES FEW OR NO CLOUDS BELOW 12,000 FEET WITH NO
SIGNIFICANT WEATHER AND/OR OBSTRUCTIONS TO VISIBILITY.

...SOUTH CENTRAL NEBRASKA...

CITY           SKY/WX    TMP DP  RH WIND       PRES   REMARKS
GRAND ISLAND   CLOUDY    53  42  66 N20G25    29.93R
HASTINGS       CLOUDY    54  41  61 N18G26    29.93S
KEARNEY        CLOUDY    54  39  58 N15       29.95R
ORD            CLOUDY    52  39  61 N17G24    29.93S
YORK           CLOUDY    55  41  58 N12       29.89S
AURORA         CLOUDY    54  40  59 N18       29.91S
LEXINGTON      PTCLDY    56  40  55 N18       29.96S
HOLDREGE       CLOUDY    54  39  57 N12G20    29.94F
HEBRON         CLOUDY    56  43  62 NW10G16   29.89S

...NEBRASKA PANHANDLE...

CITY           SKY/WX    TMP DP  RH WIND       PRES   REMARKS
CHADRON        SUNNY     58  38  47 NE10      30.03S
ALLIANCE       SUNNY     57  35  43 N14       30.03S
SCOTTSBLUFF    SUNNY     61  36  39 N13       30.04S
SIDNEY         SUNNY     58  37  45 N14       30.04S

...WESTERN AND NORTH CENTRAL NEBRASKA...

CITY           SKY/WX    TMP DP  RH WIND       PRES   REMARKS
VALENTINE      MOSUNNY   56  37  49 N16G23    30.00S
AINSWORTH      MOCLDY    51  42  71 N16       29.99R
ONEILL         CLOUDY    50  44  78 N10       29.95S
BROKEN BOW     CLOUDY    55  40  56 N22       29.95S
IMPERIAL       SUNNY     58  33  39 N17G24    30.00F
NORTH PLATTE   CLEAR     57  35  43 N17       29.98S
MCCOOK         CLEAR     59  35  40 N23G32    29.97S

...EASTERN NEBRASKA...

CITY           SKY/WX    TMP DP  RH WIND       PRES   REMARKS
NORFOLK        CLOUDY    53  44  71 NW16      29.87S
SO SIOUX CITY  CLOUDY    53  50  89 N12       29.84S
TEKAMAH        HVY RAIN  50  47  89 N13       29.84S FOG
ALBION         CLOUDY    54  44  68 N16G22    29.92R
OMAHA EPPLEY   CLOUDY    53  45  74 N7        29.83S
OFFUTT AFB     CLOUDY    54  47  77 N8G17     29.83R
MILLARD        CLOUDY    57  47  67 N6        29.84S
LINCOLN        CLOUDY    54  47  77 N13       29.87S
NEBRASKA CITY  CLOUDY    56  43  62 N12       29.84R
BEATRICE       MOCLDY    55  45  69 N15       29.86S
FALLS CITY     CLOUDY    57  45  64 NW16G23   29.81S

...NORTHERN KANSAS...

CITY           SKY/WX    TMP DP  RH WIND       PRES   REMARKS
GOODLAND       MOCLDY    56  36  47 N12       30.01S
HILL CITY      MOCLDY    60  37  42 N18G24    29.97S
NORTON         CLOUDY    55  34  44 N16G24    29.96S
PHILLIPSBURG   MOCLDY    57  39  51 NW14      29.95S
SMITH CENTER   CLOUDY    54  41  62 N16       29.94S
HAYS           MOCLDY    57  40  52 N17       29.95R
RUSSELL        PTCLDY    56  40  55 N18G31    29.92S
CONCORDIA      CLOUDY    55  44  66 N14G22    29.89S
SALINA         CLEAR     59  44  57 N14       29.89S
TOPEKA         CLOUDY    57  52  83 NW5       29.83R



USA.gov is the U.S. government's official web portal to all federal, state and local government web resources and services.